עמוד ראשי
METAR-TAF:

METAR-TAF

שדות תעופה :

Angoon, אלסקה, ארצות הברית

קו רוחב: 57-30N, קו אורך: 134-35W, גובה: 0מטר

תצפית מזג אוויר נוכחית

הדו"ח נערך לפני 34דקות, בשעה 08:56 UTC
רוח רגועה
טמפרטורת 13 צלסיוס
לחות 88%
לחץ 1014 hPa
ראות: 16.1קילומטר
מעט עננים בגובה 7500רגל
עננים בינוניים בגובה 10000רגל
עננים בינוניים בגובה 12000רגל

METAR: PAGN 240856Z AUTO 00000KT 10SM FEW075 BKN100 BKN120 13/11 A2994 RMK AO2 SLP129 T01280111 401610106 51012

זמן: 01:30 (09:30 UTC)


TAF: חסר

תצפיות ותחזיות מזג אוויר לגבי יותר מ- 4,000 שדות תעופה ברחבי העולם. דוחות METAR ו- TAF.

התחנות הזמינות מסומנות בנקודות צהובות ואדומות על גבי המפה.

העבר את העכבר לנקודה הצבעונית על מנת לראות את שם התחנה.

לאחר מכן, לחץ כדי לראות את תוכן ואת תחזיות מזג האוויר.

כדי לשנות את המפה: לחץ על הכפתורים הירוקים עם הפלוס השחור כדי להתקרב; על הכפתור הירוק עם המקף כדי להתרחק; או בחיצים הירוקים למפות סמוכות.


METAR-TAF: